Погода в Волгограде

Погода в Волгограде : погода сейчас, прогноз погоды и архив. Всё, что Вы хотите узнать о погоде в Волгограде!

Хотите узнать прогноз погоды в Волгограде? Тогда Вам сюда: Погода в Волгограде

Поиск расширенной информации на нашем сайте:

Другие новости

Новости СМИ2

Главная страница сайта

Новости сайта

02.10.2013

Напоминаем, что на нашем новом сайте вы можете получить высокодетализированные прогнозы погоды по пунктам России, СНГ и мира (включающие важные для авиации метеовеличины, такие как направление и скорость ветра, видимость, явления погоды, количество и форма облачности, нижняя и верхняя граница облачности), а также ознакомиться с разнообразными материалами по авиационной метеорологии и подборкой полезных ссылок на эту тему.

Сайт Метеоцентр.Азия посвящён разработке технологий оптимизации авиаметеорологического обслуживания, включая проектирование и перспективное создание нескольких автоматизированных авиаметеорологических систем:
- система выпуска высокодетальных прогностических карт явлений погоды для нижнего воздушного пространства по России и ближнему зарубежью;
- система верификации прогнозов TAF (выпускаемых синоптиками официальных АМСГ РФ и ближнего зарубежья) и AUTOTAF (выпускаемых сайтом Метеоцентр.Азия) - выявление ошибок, онлайн-сопоставление с фактической погодой METAR, автоматическое внесение коррективов в прогнозы при резком отклонении фактической погоды от прогноза, подсчёт оправдываемости прогнозов по элементам и в целом;
- система обработки, анализа и отображения авиаметеорологической информации для применения провайдерами метеорологической информации.


Погода в Волгограде - сегодня

Время (UTC), дата Ветер
(°,м/с) 
Видим.   Явления Облачность Т
(°С)
Тd
(°С)
f(%) Тe
(°С)
Pmin
(гПа)
dP
(гПа)
Po
(мм)
O2
(г/м3)
Тmin Tmax R s Состояние
почвы
12 23.02.17 210 (ЮЗ) 8-11{11}  10 км  слаб. дождь  10/8 1000 м средняя 
[Sc|As op]
+1.9 -0.2 86 -2  1005.3  -2.6  740  296           
15 23.02.17 200 (Ю) 11-14{15}  4000 м  слаб. дождь{ливн. осадки}  10/10 150 м 
[Frnb|Ns]
+1.6 +0.9 95 -3  1001.8  -3.5  737  295    +2.2       
18 23.02.17 220 (ЮЗ) 10-13{17}  4000 м  слаб. ливневой дождь{снег}  9/9 120 м кучево-дожд. 
[Cb calv]
+2.1 +1.7 97 -2  998  -3.5  734  293           
21 23.02.17 280 (З) 8-11{14}  10 км  в посл. час ливневой снег  8/8 400 м 
[Sc]
+2.2 +1.2 93 -2  999  0.9  735  294           
00 24.02.17 270 (З) 8-11{13}  10 км    8/5 570 м средняя 
[Sc|Ac trans]
+1.2 +0 92 -3  1001.7  2.6  737  296           
03 24.02.17 270 (З) 8-12{13}  10 км    8/5 300 м средняя 
[St|Ac trans]
+1.3 +0.1 92 -3  1004.6  2.9  739  296  +1         
06 24.02.17 270 (З) 9-11{13}  10 км    6/6 1500 м 
[Sc]
+1.7 -0.1 88 -2  1007.9  3.2  742  297  +0.6         
09 24.02.17 270 (З) 7-10{11}  10 км    8/4 480 м верхняя 
[Sc|Ci fib]
+3 +0.4 83 1009.3  1.5  743  296           
12 24.02.17 240 (ЮЗ) 6{11}  10 км    8/0 средняя 
[Ac trans]
+4 +0.9 80 +1  1009.5  0.3  743  295           
15 24.02.17 210 (ЮЗ) 10 км  слаб. дождь  10/8 1000 м средняя 
[Sc|As op]
+2.4 +1.2 92 -1  1009.5  -0.2  743  297    +4.5       
18 24.02.17 200 (Ю) 10 км  {дождь}  9/9 450 м 
[Sc]
+3.6 +2.6 93 1008.7  -0.7  742  295           
21 24.02.17 230 (ЮЗ) 10-13{13}  10 км    9/0 средняя 
[Ac trans]
+5.1 +4 93 +1  1007.3  -1.3  741  293           
00 25.02.17 250 (З) 7{13}  10 км    9/0 средняя 
[Ac trans]
+4.5 +3.5 93 +2  1007.5  0.1  741  293           
03 25.02.17 240 (ЮЗ) 10 км    9/9 600 м 
[Sc]
+4.5 +3 90 +2  1007.7  0.2  742  293  +2.4         
06 25.02.17 240 (ЮЗ) 10 км    9/9 400 м 
[Sc]
+4.7 +3.1 89 +1  1008.1  0.5  742  293           
09 25.02.17 250 (З) 10-12{13}  10 км    9/9 360 м 
[St]
+6.5 +4.6 88 +3  1008.1  0.2  742  291           
12 25.02.17 230 (ЮЗ) 7{14}  10 км    8/4 300 м средняя 
[Sc|Ac trans]
+7.5 +5.3 86 +5  1006.7  -1.2  741  290           
15 25.02.17 220 (ЮЗ) 6{10}  10 км    9/9 800 м кучево-дожд. 
[Cb calv]
+6.4 +5.3 93 +4  1005.5  -1.3  740  290    +8.7       
18 25.02.17 250 (З) 12-15{15}  4000 м  слаб. ливневой дождь  10/10 120 м кучево-дожд. 
[Cb calv]
+7 +6.6 97 +3  1003.2  -2.3  738  289           
21 25.02.17 330 (СЗ) 8-14{15}  1800 м  снег{ливн. осадки}  10/10 120 м 
[Frnb|Ns]
-0.1 -0.3 99 -4  1007.9  3.6  742  299           
00 26.02.17 310 (СЗ) 5{15}  10 км  в посл. час снег{ливн. осадки}  9/5 330 м средняя 
[St|Ac trans]
-1.4 -1.9 96 -5  1011.7  3.3  744  302           
03 26.02.17 270 (З) 10 км    ясно 
-5.4 -6.5 92 -9  1015.1  3.2  747  308  -5.7         
06 26.02.17 270 (З) 8-11{11}  10 км    ясно 
-2.6 -4.4 87 -7  1017.5  2.7  748  305           
09 26.02.17 270 (З) 9-13{12}  10 км    6/6 750 м 
[Sc]
-0.6 -3 84 -5  1018.3  0.7  749  303           
12 26.02.17 280 (З) 10-15{15}  10 км  в посл. час ливневой снег  9/9 720 м кучево-дожд. 
[Cb calv]
-0.8 -4.7 75 -6  1019.1  0.8  750  303           
Время (UTC), дата Ветер
(°,м/с) 
Видим.   Явления Облачность Т
(°С)
Тd
(°С)
f(%) Тe
(°С)
Pmin
(гПа)
dP
(гПа)
Po
(мм)
O2
(г/м3)
Тmin Tmax R s Состояние
почвы

Для получения пояснительной информации подведите курсор к названию столбца.

ПОГОДА в Волгограде - архив

Всё, что Вы хотите узнать о погоде в Волгограде - удобно и подробно!

Выберите нужную дату (начиная с 1 января 2015* года) и нажмите кнопку "Найти".
Будут отображены архивные сводки погоды по пункту Волгоград, начиная с указанной даты.


Отображать данные в формате CSV (для использования в таблицах Excel)


Внимание! Наш архив погоды предназначен исключительно для личного некоммерческого использования в познавательных целях. Если Вам необходимы официальные справки о состоянии погоды (для производственных, юридических, коммерческих и т.п. целей), обращайтесь в органы Росгидромета.

*Примечание: данная дата относится к архиву по метеостанциям СССР (Россия, СНГ, Балтия).
Архив по метеостанциям Зарубежной Европы и Азии (кроме Китая) хранится 10 дней, по другим регионам земного шара (Китай, Африка, Америка, Австралия, Океания) - 1 день.

Волгоград - район местоположения метеостанции


Название, широта, долгота, высота метеостанции:
Волгоград (Гумрак) 48.8°ш. 44.4°д. 134 м над ур. моря [Российская Федерация]

Дополнительная информация

В oтличие oт бoльшинства пoгoдных сайтoв мы публикуем пoдрoбную метеoинфoрмацию в детальнoм прoфессиoнальнoм фoрмате.

Характеристики температуры и влажнoсти вoздуха измеряются на высoте 2 м в тени вдали oт зданий и деревьев.
Скoрoсть ветра измеряется на высoте 10 м (на урoвне рoста челoвека скoрoсть ветра ниже в 1.5-2 раза). Если метеoстанция нахoдится в гoрoде или в лесу, тo скoрoсть ветра занижена на 2-4 м/с пo сравнению с oткрытым местoм. Скoрoсть ветра над акватoриями крупных рек и oзёр, а также на вершинах хoлмoв на 2-5 м/с выше, чем в oбычных услoвиях.
Атмoсфернoе давление в разных тoчках местнoсти мoжет значительнo oтличаться oт давления на метеoстанции, в зависимoсти oт услoвий рельефа (при пoдъёме на 10 м давление пoнижается примернo на 1 мм рт.ст.).